N9GIA Weather Reports


time (UTC)temp
C
wind
direction
speed
KPH
gust
KPH
rain 1hr
cm
rain 24hr
cm
rain mn
cm
humidity
%
barometer
mb
20260906021529 26 57 1.6 4.8 0.00 0.00 0.00 100 988.4
20260906020024 26 80 1.6 6.4 0.00 0.00 0.00 100 988.4
20260906014524 27 74 3.2 6.4 0.00 0.00 0.00 100 988.1
20260906013016 27 42 1.6 6.4 0.00 0.00 0.00 100 987.8
20260906011511 28 65 3.2 4.8 0.00 0.00 0.00 100 987.5
20260906010008 28 65 1.6 6.4 0.00 0.00 0.00 100 987.4
20260906004502 29 41 3.2 6.4 0.00 0.00 0.00 100 987.2
20260906003058 30 355 0.0 4.8 0.00 0.00 0.00 100 987.1
20260906001600 30 355 1.6 4.8 0.00 0.00 0.00 100 987.0
20260906000050 31 355 3.2 4.8 0.00 0.00 0.00 100 987.0
20260905234545 31 355 0.0 3.2 0.00 0.00 0.00 100 986.8
20260905233102 31 355 1.6 3.2 0.00 0.00 0.00 100 987.0
20260905231549 31 355 3.2 6.4 0.00 0.00 0.00 100 986.9
20260905230032 31 355 3.2 6.4 0.00 0.00 0.00 100 986.8
20260905224528 32 351 1.6 8.0 0.00 0.00 0.00 100 986.6
20260905223023 32 360 3.2 6.4 0.00 0.00 0.00 23 986.6
20260905221531 32 18 1.6 8.0 0.00 0.00 0.00 21 986.7
20260905220014 32 5 0.0 8.0 0.00 0.00 0.00 28 986.7
20260905214511 32 355 3.2 8.0 0.00 0.00 0.00 39 986.6
20260905213005 33 39 1.6 4.8 0.00 0.00 0.00 39 986.5
20260905211501 33 355 0.0 8.0 0.00 0.00 0.00 50 986.5
20260905210057 33 355 11.3 17.7 0.00 0.00 0.00 58 986.6
20260905204553 33 355 6.4 12.9 0.00 0.00 0.00 58 986.8
20260905203052 33 360 6.4 17.7 0.00 0.00 0.00 60 986.8
20260905201544 33 326 6.4 12.9 0.00 0.00 0.00 60 986.8
20260905200043 34 355 6.4 12.9 0.00 0.00 0.00 59 986.8
20260905194535 34 347 6.4 12.9 0.00 0.00 0.00 60 986.8
20260905193031 34 360 9.7 16.1 0.00 0.00 0.00 59 987.0
20260905191526 34 351 8.0 16.1 0.00 0.00 0.00 60 987.2
20260905190024 33 355 6.4 12.9 0.00 0.00 0.00 60 987.2
20260905184521 33 9 8.0 14.5 0.00 0.00 0.00 59 987.4
20260905183013 34 355 11.3 19.3 0.00 0.00 0.00 59 987.5
20260905181508 33 360 8.0 20.9 0.00 0.00 0.00 59 987.5
20260905180004 34 351 8.0 16.1 0.00 0.00 0.00 60 987.5
20260905174601 33 298 8.0 19.3 0.00 0.00 0.00 59 987.7
20260905173057 33 5 9.7 14.5 0.00 0.00 0.00 60 987.6
20260905171553 33 360 6.4 14.5 0.00 0.00 0.00 59 987.8
20260905170047 33 337 8.0 12.9 0.00 0.00 0.00 58 987.9
20260905164542 33 322 9.7 14.5 0.00 0.00 0.00 59 988.0
20260905163038 33 338 8.0 12.9 0.00 0.00 0.00 59 988.3
20260905161533 32 318 3.2 9.7 0.00 0.00 0.00 59 988.3
20260905160030 32 355 1.6 6.4 0.00 0.00 0.00 57 988.3
20260905154524 32 355 1.6 8.0 0.00 0.00 0.00 54 988.3
20260905153020 31 332 1.6 6.4 0.00 0.00 0.00 54 988.4
20260905151516 31 165 0.0 0.0 0.00 0.00 0.00 4 988.4
20260905150011 31 165 0.0 0.0 0.00 0.00 0.00 100 988.2
20260905144507 30 165 0.0 0.0 0.00 0.00 0.00 100 988.0
20260905143003 28 165 0.0 0.0 0.00 0.00 0.00 100 987.9
20260905141623 27 165 0.0 3.2 0.00 0.00 0.00 100 987.8
20260905140055 26 163 0.0 3.2 0.00 0.00 0.00 100 987.9
20260905134551 25 163 0.0 1.6 0.00 0.00 0.00 100 988.2
20260905133045 25 163 0.0 3.2 0.00 0.00 0.00 100 988.0
20260905131556 24 163 0.0 0.0 0.00 0.00 0.00 100 987.9
20260905130038 23 163 0.0 0.0 0.00 0.00 0.00 100 987.9
20260905124541 23 163 0.0 0.0 0.00 0.00 0.00 100 987.8
20260905123028 22 163 0.0 0.0 0.00 0.00 0.00 100 987.8
20260905121530 22 163 0.0 0.0 0.00 0.00 0.00 100 987.7
20260905120021 22 163 0.0 0.0 0.00 0.00 0.00 100 987.6
20260905114534 22 163 0.0 0.0 0.00 0.00 0.00 100 987.4
20260905113011 22 163 0.0 0.0 0.00 0.00 0.00 100 987.3
20260905111507 22 163 0.0 0.0 0.00 0.00 0.00 100 987.3
20260905110001 22 163 0.0 3.2 0.00 0.00 0.00 100 987.3
20260905104557 23 163 0.0 1.6 0.00 0.00 0.00 100 987.3
20260905103053 22 163 0.0 1.6 0.00 0.00 0.00 100 987.3
20260905101601 22 160 0.0 6.4 0.00 0.00 0.00 100 987.2
20260905100044 23 154 0.0 3.2 0.00 0.00 0.00 100 987.1
20260905094540 23 155 0.0 0.0 0.00 0.00 0.00 100 987.1
20260905093035 23 155 0.0 0.0 0.00 0.00 0.00 100 987.1
20260905091531 23 155 0.0 1.6 0.00 0.00 0.00 100 987.1
20260905090033 23 155 0.0 1.6 0.00 0.00 0.00 100 987.1
20260905084550 23 155 0.0 0.0 0.00 0.00 0.00 100 987.1
20260905083021 22 155 0.0 0.0 0.00 0.00 0.00 100 987.3
20260905081512 22 155 0.0 0.0 0.00 0.00 0.00 100 987.4
20260905080008 23 155 0.0 0.0 0.00 0.00 0.00 100 987.4
20260905074504 23 155 0.0 0.0 0.00 0.00 0.00 100 987.5
20260905073100 23 155 0.0 0.0 0.00 0.00 0.00 100 987.5
20260905071600 23 155 0.0 0.0 0.00 0.00 0.00 100 987.6
20260905070058 23 155 0.0 0.0 0.00 0.00 0.00 100 987.7
20260905064547 23 155 0.0 1.6 0.00 0.00 0.00 100 987.8
20260905063048 23 154 0.0 1.6 0.00 0.00 0.00 100 987.8
20260905061540 23 154 0.0 1.6 0.00 0.00 0.00 100 987.7
20260905060035 24 154 0.0 0.0 0.00 0.00 0.00 100 987.8
20260905054530 24 154 0.0 0.0 0.00 0.00 0.00 100 987.7
20260905053026 24 154 0.0 0.0 0.00 0.00 0.00 100 987.8
20260905051532 24 154 0.0 1.6 0.00 0.00 0.00 100 987.7
20260905050017 24 154 0.0 1.6 0.00 0.00 0.00 100 987.6
20260905044514 25 154 0.0 0.0 0.00 0.00 0.00 100 987.6
20260905043009 25 154 0.0 3.2 0.00 0.00 0.00 100 987.5
20260905041504 25 165 0.0 3.2 0.00 0.00 0.00 100 987.5
20260905040059 26 341 0.0 3.2 0.00 0.00 0.00 100 987.5
20260905034555 26 339 0.0 0.0 0.00 0.00 0.00 100 987.6
20260905033055 26 339 0.0 1.6 0.00 0.00 0.00 100 987.7
20260905031550 26 336 0.0 3.2 0.00 0.00 0.00 100 987.7
20260905030041 26 336 0.0 4.8 0.00 0.00 0.00 100 987.8
20260905024549 26 336 0.0 4.8 0.00 0.00 0.00 100 987.6
20260905023037 27 331 0.0 3.2 0.00 0.00 0.00 100 987.5